[[{"header":{"parameterUnit":"m.s-1","parameterCategory":1,"la1":30.2991,"la2":30.254,"lo1":-89.0895,"lo2":-89.0444,"dy":0.0017,"dx":0.0017,"nx":28,"ny":28,"refTime":"2024-06-17T09:00:00:Z","depth":0,"parameterNumber":2,"parameterNumberName":"U-component_of_WINDS"},"data":[0,0,0,0,0,0,0,0,0,0,0,0,0,0,0,0,0,0,0,0,0,0,0,0,0,0,0,0,0,0,0,0,0,0,0,0,0,0,0,0,0,0,0,0,0,0,0,0,0,0,0,0,0,0,0,0,0,0,-7.6731,-7.6731,0,-7.6718,-7.6718,-7.6718,-7.6561,-7.6557,-7.6553,-7.6549,-7.6535,-7.6538,-7.6541,0,0,0,0,0,0,0,0,0,0,0,0,0,-7.6619,-7.6622,-7.6731,-7.6731,-7.673,-7.6718,-7.6718,-7.6718,-7.6562,-7.6557,-7.6552,-7.6547,-7.6534,-7.6538,-7.6542,0,0,0,0,0,0,0,0,0,0,0,0,0,-7.6643,-7.6623,-7.6731,-7.6651,-7.6644,-7.6718,-7.6718,-7.6718,-7.6563,-7.6557,-7.6551,-7.6545,-7.6533,-7.6537,-7.6542,-7.6691,0,0,-7.6557,-7.656,0,0,0,0,0,0,0,0,-7.6642,-7.6648,-7.6663,-7.6657,-7.6649,-7.6635,-7.6673,-7.6709,-7.6564,-7.6593,-7.6549,-7.6542,-7.6573,-7.6574,-7.6585,-7.6691,-7.669,-7.6558,-7.6561,-7.6563,-7.6564,0,0,0,0,0,0,0,-7.6641,-7.6647,-7.6725,-7.6663,-7.6655,-7.6616,-7.6613,-7.6679,-7.6616,-7.659,-7.6579,-7.658,-7.6568,-7.658,-7.6583,-7.669,-7.6558,-7.6562,-7.6565,-7.6567,-7.6917,-7.6923,0,0,0,0,0,0,-7.665,-7.6647,-7.6726,-7.6725,-7.6631,-7.6623,-7.6619,-7.6645,-7.6615,-7.6605,-7.6585,-7.6572,-7.6575,-7.6578,-7.6582,-7.6752,-7.6563,-7.6568,-7.657,-7.6911,-7.6918,-7.6925,0,0,0,0,0,0,-7.6649,-7.6659,-7.6726,-7.6683,-7.6689,-7.6631,-7.6662,-7.6648,-7.666,-7.6611,-7.6599,-7.6609,-7.657,-7.6575,-7.6665,-7.675,-7.657,-7.6574,-7.6903,-7.6913,-7.6922,-7.7096,0,0,0,0,0,0,-7.6646,-7.6659,-7.6715,-7.6685,-7.6692,-7.681,-7.6667,-7.6652,-7.6669,-7.6653,-7.6631,-7.6621,-7.6566,-7.6659,-7.667,-7.6753,-7.6578,-7.6895,-7.6908,-7.6919,-7.7082,-7.711,-7.7134,0,0,0,0,0,-7.6643,-7.6764,-7.6719,-7.6729,-7.676,-7.6815,-7.6819,-7.6753,-7.6677,-7.6732,-7.6701,-7.6622,-7.6741,-7.6669,-7.6681,-7.6767,-7.6889,-7.6904,-7.6918,-7.7071,-7.7105,-7.7134,0,0,0,0,0,0,-7.6804,-7.6759,-7.6707,-7.6824,-7.6825,-7.6789,-7.6856,-7.6791,-7.6813,-7.6797,-7.6715,-7.6711,-7.6813,-7.68,-7.6722,-7.691,-7.6801,-7.6818,-7.6913,-7.6946,-7.6971,-7.697,-7.6582,0,0,0,0,0,-7.6854,-7.6902,-7.686,-7.6967,-7.697,-7.6914,-7.6936,-7.6885,-7.6883,-7.6882,-7.6857,-7.6857,-7.6894,-7.692,-7.6951,-7.7082,-7.7074,-7.7147,-7.7173,-7.7195,-7.7209,-7.7275,-7.7307,-7.6972,-7.6972,-7.6971,0,0,-7.6955,-7.6937,-7.6972,-7.6999,-7.6993,-7.7045,-7.6915,-7.6975,-7.7012,-7.6891,-7.6973,-7.6956,-7.6951,-7.7062,-7.7109,-7.7053,-7.7301,-7.7213,-7.7231,-7.7233,-7.7293,-7.7325,-7.7353,-7.6981,-7.698,-7.6978,0,0,-7.7165,-7.7158,-7.7245,-7.7243,-7.7238,-7.72,-7.7222,-7.7196,-7.718,-7.7263,-7.7172,-7.7216,-7.7282,-7.7281,-7.729,-7.7505,-7.7432,-7.7519,-7.7652,-7.7717,-7.7744,-7.7767,-7.784,-7.7868,-7.7534,-7.7534,-7.7535,0,-7.7292,-7.7366,-7.7298,-7.7364,-7.7378,-7.7273,-7.736,-7.7361,-7.7367,-7.7378,-7.7317,-7.7398,-7.7387,-7.7495,-7.7548,-7.756,-7.758,-7.7517,-7.7746,-7.7768,-7.7788,-7.7857,-7.7886,-7.7545,-7.7543,-7.7542,-7.7541,0,-7.752,-7.7574,-7.7645,-7.7653,-7.7676,-7.7753,-7.7695,-7.7727,-7.7677,-7.7646,-7.7731,-7.7716,-7.7741,-7.7765,-7.7716,-7.7867,-7.7832,-7.776,-7.7648,-7.7831,-7.7895,-7.7921,-7.7559,-7.7555,-7.7552,-7.755,0,0,-7.7826,-7.7798,-7.7825,-7.7827,-7.7815,-7.7855,-7.7928,-7.7954,-7.7982,-7.7991,-7.8048,-7.8108,-7.8042,-7.8052,-7.8003,-7.8061,-7.8229,-7.7981,-7.798,-7.8024,-7.8391,-7.8442,-7.8474,-7.8184,-7.8189,-7.8193,-7.8391,0,-7.8026,-7.8147,-7.8089,-7.8217,-7.8264,-7.8168,-7.8231,-7.8231,-7.8205,-7.8242,-7.8214,-7.8256,-7.8167,-7.8172,-7.8227,-7.8197,-7.8301,-7.8183,-7.8233,-7.8236,-7.8232,-7.8507,-7.8561,-7.8748,-7.8415,-7.842,-7.8423,0,-7.8273,-7.8293,-7.8426,-7.8405,-7.8423,-7.8481,-7.85,-7.8538,-7.8536,-7.8514,-7.8527,-7.8465,-7.8535,-7.8429,-7.8523,-7.8444,-7.8462,-7.8452,-7.8458,-7.8455,-7.8336,-7.8508,-7.8807,-7.8833,-7.8462,-7.8458,-7.8456,0,-7.8478,-7.8538,-7.8625,-7.8631,-7.8611,-7.8653,-7.8647,-7.8639,-7.8659,-7.8678,-7.8689,-7.8716,-7.873,-7.8752,-7.8698,-7.8627,-7.8799,-7.8689,-7.878,-7.8781,-7.8815,-7.8813,-7.9116,-7.8837,-7.8836,-7.8836,-7.8835,0,-7.8703,-7.8787,-7.8716,-7.8769,-7.8861,-7.8796,-7.8888,-7.8871,-7.8866,-7.8914,-7.8834,-7.888,-7.881,-7.885,-7.8809,-7.8892,-7.89,-7.8882,-7.8869,-7.8886,-7.8888,-7.8892,-7.8876,-7.8843,-7.8841,-7.884,-7.8839,0,-7.8944,-7.8901,-7.8988,-7.8964,-7.896,-7.9028,-7.9006,-7.9054,-7.9025,-7.9087,-7.9097,-7.9052,-7.9094,-7.9045,-7.9084,-7.9057,-7.9168,-7.9138,-7.9168,-7.9157,-7.9249,-7.924,-7.9562,-7.9599,-7.9301,-7.9304,-7.9306,0,-7.9088,-7.915,-7.9133,-7.916,-7.9159,-7.9203,-7.9223,-7.9163,-7.9187,-7.9192,-7.9239,-7.9276,-7.93,-7.9374,-7.9343,-7.9373,-7.934,-7.9452,-7.9344,-7.9359,-7.9337,-7.9332,-7.9336,-7.9471,-7.9475,-7.9478,-7.948,0,-7.9347,-7.9323,-7.9355,-7.9382,-7.9409,-7.9426,-7.9438,-7.9464,-7.9402,-7.9433,-7.9476,-7.9497,-7.9537,-7.9573,-7.9595,-7.9588,-7.9524,-7.9516,-7.9537,-7.9552,-7.9565,-7.9555,-7.9222,-7.9507,-7.9504,-7.9502,-7.9501,-7.95,-7.954,-7.9591,-7.9587,-7.9626,-7.9629,-7.9643,-7.9686,-7.9664,-7.9699,-7.9727,-7.969,-7.9744,-7.9742,-7.9764,-7.9765,-7.9806,-7.9758,-7.979,-7.9797,-7.9805,-7.9817,-7.9564,-7.981,-7.9809,-7.9808,-7.9808,-7.9807,0,-7.9791,-7.9785,-7.9822,-7.9841,-7.9873,-7.9813,-7.9823,-7.9853,-7.9901,-7.9905,-7.9933,-7.9983,-8.0018,-7.9993,-8.0023,-8.006,-8.0032,-8.007,-8.0064,-8.0063,-7.986,-7.9836,-8.0093,-8.0093,-8.0093,-8.0092,-8.0092,-8.0092,-7.9925,-8.0007,-7.9983,-8.0066,-8.0059,-8.0111,-8.0122,-8.0134,-8.0137,-8.0196,-8.0226,-8.021,-8.0203,-8.0232,-8.0262,-8.0254,-8.0267,-8.0315,-8.0296,-8.0105,-8.0077,-8.005,-8.0027,-8.0319,-8.032,-8.0494,-8.0496,-8.0497]},{"header":{"parameterUnit":"m.s-1","parameterCategory":1,"la1":30.2991,"la2":30.254,"lo1":-89.0895,"lo2":-89.0444,"dy":0.0017,"dx":0.0017,"nx":28,"ny":28,"refTime":"2024-06-17T09:00:00:Z","depth":0,"parameterNumber":3,"parameterNumberName":"V-component_of_WINDS"},"data":[0,0,0,0,0,0,0,0,0,0,0,0,0,0,0,0,0,0,0,0,0,0,0,0,0,0,0,0,0,0,0,0,0,0,0,0,0,0,0,0,0,0,0,0,0,0,0,0,0,0,0,0,0,0,0,0,0,0,2.1267,2.1267,0,2.1319,2.1319,2.132,2.1317,2.1316,2.1315,2.1314,2.1364,2.1366,2.1368,0,0,0,0,0,0,0,0,0,0,0,0,0,2.1163,2.1165,2.1267,2.1267,2.1268,2.1318,2.1319,2.132,2.1317,2.1316,2.1315,2.1314,2.1363,2.1365,2.1368,0,0,0,0,0,0,0,0,0,0,0,0,0,2.121,2.1165,2.1266,2.1272,2.1274,2.1318,2.1319,2.132,2.1317,2.1316,2.1315,2.1314,2.1362,2.1365,2.1368,2.1409,0,0,2.1377,2.1379,0,0,0,0,0,0,0,0,2.1208,2.1214,2.1271,2.1272,2.1273,2.131,2.1301,2.135,2.1317,2.13,2.1314,2.1313,2.1346,2.1351,2.1363,2.1411,2.1413,2.1378,2.1379,2.1381,2.1381,0,0,0,0,0,0,0,2.1204,2.1212,2.1287,2.1272,2.1273,2.1272,2.1278,2.131,2.1329,2.1302,2.1302,2.1308,2.1347,2.136,2.1364,2.1414,2.1377,2.138,2.1382,2.1383,2.1501,2.1502,0,0,0,0,0,0,2.12,2.1209,2.1285,2.1289,2.1237,2.1275,2.1281,2.1299,2.1329,2.1332,2.1309,2.1308,2.1355,2.136,2.1366,2.1417,2.1381,2.1383,2.1385,2.15,2.1501,2.1503,0,0,0,0,0,0,2.1198,2.1207,2.1283,2.1249,2.1259,2.1278,2.1298,2.1301,2.1314,2.1334,2.1337,2.1319,2.1355,2.1361,2.1399,2.1418,2.1385,2.1388,2.1498,2.15,2.1502,2.1519,0,0,0,0,0,0,2.1195,2.1206,2.1222,2.1249,2.126,2.1316,2.13,2.1303,2.132,2.1318,2.1344,2.1347,2.1354,2.1395,2.1402,2.1422,2.139,2.1497,2.1499,2.1502,2.1517,2.1521,2.1525,0,0,0,0,0,2.1191,2.1223,2.1223,2.1232,2.1281,2.1318,2.1324,2.1332,2.1321,2.1337,2.1351,2.1346,2.1415,2.1398,2.1407,2.1428,2.1495,2.1498,2.1501,2.1515,2.152,2.1525,0,0,0,0,0,0,2.1196,2.1227,2.1227,2.1269,2.1291,2.1317,2.1337,2.1337,2.1362,2.1359,2.1368,2.1374,2.1412,2.1424,2.1404,2.147,2.1454,2.1459,2.1461,2.1466,2.1471,2.1467,2.1392,0,0,0,0,0,2.1202,2.123,2.1255,2.129,2.1301,2.1318,2.1334,2.1339,2.1361,2.137,2.1386,2.1407,2.1434,2.1451,2.1476,2.1519,2.1525,2.1537,2.1542,2.1545,2.1549,2.1574,2.158,2.1513,2.1513,2.1513,0,0,2.1214,2.1235,2.1252,2.1292,2.1309,2.1338,2.1325,2.1355,2.1376,2.1374,2.1411,2.1424,2.1448,2.1489,2.1508,2.15,2.1569,2.1549,2.1551,2.1553,2.1577,2.1584,2.1589,2.1515,2.1514,2.1514,0,0,2.1252,2.127,2.1302,2.1321,2.1348,2.136,2.1367,2.1394,2.1403,2.1441,2.1441,2.1466,2.1511,2.1529,2.1544,2.1591,2.1589,2.1599,2.1621,2.1645,2.165,2.1655,2.1673,2.1679,2.1603,2.1603,2.1603,0,2.1263,2.1307,2.1318,2.1349,2.1367,2.1369,2.1401,2.1418,2.1452,2.1464,2.1456,2.1514,2.153,2.1576,2.1588,2.16,2.1609,2.1596,2.1649,2.1654,2.1658,2.1675,2.1682,2.1604,2.1604,2.1604,2.1604,0,2.1321,2.1351,2.1374,2.1409,2.1429,2.1461,2.1476,2.1495,2.1499,2.1512,2.1551,2.1571,2.1601,2.1613,2.1616,2.166,2.1654,2.1647,2.1631,2.1666,2.1682,2.1688,2.1606,2.1605,2.1605,2.1605,0,0,2.136,2.1404,2.1412,2.1429,2.1461,2.1484,2.1516,2.1548,2.1565,2.1589,2.1616,2.1656,2.165,2.1667,2.1673,2.1694,2.1732,2.1685,2.1685,2.1693,2.1783,2.1788,2.1795,2.1731,2.1732,2.1733,2.1781,0,2.1401,2.146,2.1472,2.1522,2.1551,2.1555,2.1583,2.1605,2.1618,2.1644,2.1657,2.1686,2.1676,2.1687,2.1708,2.1723,2.175,2.1719,2.1756,2.1757,2.175,2.1803,2.1808,2.1852,2.1787,2.1788,2.1789,0,2.1457,2.1485,2.1539,2.157,2.1582,2.1607,2.1638,2.1663,2.1689,2.1697,2.1718,2.1722,2.1755,2.1738,2.1785,2.1764,2.1779,2.1789,2.1791,2.1794,2.1775,2.1808,2.1866,2.1873,2.1799,2.1798,2.1797,0,2.1481,2.1532,2.1572,2.1586,2.1623,2.1641,2.1656,2.1681,2.17,2.1727,2.174,2.177,2.1786,2.1809,2.1821,2.1807,2.1867,2.185,2.1874,2.1874,2.1886,2.1885,2.1947,2.1896,2.1896,2.1896,2.1895,0,2.1526,2.1559,2.1584,2.1608,2.1646,2.1659,2.1696,2.1711,2.1734,2.1761,2.1765,2.179,2.1804,2.1831,2.1841,2.1878,2.1885,2.1893,2.1895,2.1892,2.1892,2.1902,2.19,2.1897,2.1897,2.1897,2.1896,0,2.1559,2.1577,2.1621,2.1653,2.1662,2.1688,2.1715,2.1739,2.1753,2.1787,2.1796,2.1817,2.1849,2.1864,2.1903,2.1909,2.1953,2.1952,2.1944,2.1945,2.1968,2.1966,2.204,2.2051,2.1992,2.1992,2.1993,0,2.1587,2.1613,2.1649,2.1668,2.1685,2.1716,2.1736,2.1751,2.1772,2.1805,2.1825,2.1858,2.1885,2.1937,2.1955,2.1986,2.1986,2.201,2.199,2.1988,2.1987,2.1986,2.1989,2.2013,2.2014,2.2014,2.2015,0,2.1634,2.1642,2.1672,2.1706,2.1731,2.1758,2.1784,2.1799,2.1818,2.1841,2.1876,2.1897,2.1939,2.1972,2.2004,2.2019,2.202,2.2021,2.2028,2.2026,2.2021,2.2025,2.1954,2.2019,2.2019,2.2018,2.2018,2.2018,2.1665,2.1689,2.1719,2.1753,2.1775,2.18,2.1825,2.1843,2.1872,2.1909,2.1915,2.1952,2.1979,2.2023,2.204,2.2068,2.2062,2.2073,2.2075,2.2078,2.2079,2.2017,2.2074,2.2074,2.2074,2.2074,2.2074,0,2.1713,2.1733,2.1764,2.1803,2.1829,2.183,2.186,2.1882,2.1915,2.1941,2.1969,2.2009,2.2041,2.2063,2.2096,2.2115,2.2116,2.2123,2.2122,2.2126,2.2082,2.2073,2.2122,2.2122,2.2122,2.2122,2.2122,2.2122,2.1741,2.1783,2.1795,2.1848,2.1867,2.1905,2.1922,2.1945,2.1966,2.2012,2.204,2.2055,2.2079,2.2114,2.2144,2.215,2.2162,2.2169,2.2174,2.2133,2.2128,2.2124,2.2115,2.2171,2.2172,2.2215,2.2216,2.2216]}]]